When you browse on this site, cookies collect data to enhance your experience and personalize the content and advertising you see.
Visit our Privacy Policy to learn more. By continuing to use the site, you agree to this use of cookies and data.
  • In Hungary
  • List of Countries
  • For 7 days
  • Water Temperature
  • Satellite Maps
  • Weather Map
  • News
  • Weather Widgets
  • user-avatar
    Login

    Hourly Weather Charkesar

    Today, 18 December, Tuesday

    Time Temperature Precipitation Wind Pressure Humidity
    00:00 +2°C° 0.4 mm 2 mps 655 mmHg 69%
    01:00 +2°C° 0.4 mm 2 mps 656 mmHg 70%
    02:00 +2°C° 0.4 mm 2 mps 656 mmHg 71%
    03:00 +2°C° 0.5 mm 2 mps 656 mmHg 73%
    04:00 +1°C° 0.5 mm 2 mps 656 mmHg 74%
    05:00 +1°C° 0 mm 2 mps 656 mmHg 76%
    06:00 +1°C° 0.2 mm 2 mps 656 mmHg 76%
    07:00 +1°C° 0.2 mm 2 mps 656 mmHg 77%
    08:00 +1°C° 0.2 mm 2 mps 656 mmHg 77%
    09:00 +1°C° 0.1 mm 3 mps 657 mmHg 74%
    10:00 +1°C° 0.1 mm 3 mps 657 mmHg 72%
    11:00 +2°C° 0 mm 3 mps 657 mmHg 69%
    12:00 +2°C° 0.1 mm 3 mps 656 mmHg 69%
    13:00 +3°C° 0.1 mm 2 mps 656 mmHg 69%
    14:00 +3°C° 0.1 mm 2 mps 656 mmHg 70%
    15:00 +3°C° 0.3 mm 2 mps 656 mmHg 73%
    16:00 +2°C° 0.3 mm 2 mps 656 mmHg 77%
    17:00 +1°C° 0.3 mm 2 mps 656 mmHg 80%
    18:00 +1°C° 0.4 mm 2 mps 656 mmHg 81%
    19:00 +1°C° 0.4 mm 2 mps 655 mmHg 82%
    20:00 +1°C° 0.4 mm 2 mps 655 mmHg 83%
    21:00 +2°C° 0.4 mm 1 mps 655 mmHg 83%
    22:00 +2°C° 0.4 mm 1 mps 655 mmHg 84%
    23:00 +2°C° 0.4 mm 1 mps 654 mmHg 84%

    Tomorrow, 19 December, Wednesday

    Time Temperature Precipitation Wind Pressure Humidity
    00:00 +2°C° 0.4 mm 1 mps 654 mmHg 85%
    01:00 +2°C° 0.4 mm 1 mps 654 mmHg 85%
    02:00 +2°C° 0.4 mm 1 mps 654 mmHg 86%
    03:00 +2°C° 0.5 mm 1 mps 654 mmHg 87%
    04:00 +2°C° 0.5 mm 1 mps 653 mmHg 87%
    05:00 +2°C° 0.5 mm 1 mps 653 mmHg 88%
    06:00 +2°C° 0.6 mm 1 mps 653 mmHg 88%
    07:00 +2°C° 0.6 mm 1 mps 654 mmHg 89%
    08:00 +2°C° 0.6 mm 1 mps 654 mmHg 89%
    09:00 +2°C° 0.4 mm 1 mps 654 mmHg 88%
    10:00 +2°C° 0.4 mm 1 mps 654 mmHg 87%
    11:00 +2°C° 0.4 mm 2 mps 655 mmHg 86%
    12:00 +2°C° 0.3 mm 2 mps 654 mmHg 86%
    13:00 +2°C° 0.3 mm 2 mps 654 mmHg 86%
    14:00 +2°C° 0.3 mm 2 mps 654 mmHg 86%
    15:00 +2°C° 0.4 mm 2 mps 655 mmHg 87%
    16:00 +2°C° 0.4 mm 2 mps 655 mmHg 88%
    17:00 +1°C° 0.4 mm 2 mps 656 mmHg 89%
    18:00 +1°C° 0.3 mm 2 mps 656 mmHg 88%
    19:00 +1°C° 0.3 mm 2 mps 656 mmHg 88%
    20:00 +1°C° 0.3 mm 2 mps 657 mmHg 87%
    21:00 +1°C° 0.2 mm 2 mps 657 mmHg 86%
    22:00 +1°C° 0.2 mm 2 mps 657 mmHg 86%
    23:00 -1°C° 0.2 mm 2 mps 657 mmHg 85%

    Day after tomorrow, 20 December, Thursday

    Time Temperature Precipitation Wind Pressure Humidity
    00:00 -1°C° 0.2 mm 2 mps 658 mmHg 84%
    01:00 -1°C° 0.2 mm 2 mps 658 mmHg 84%
    02:00 -1°C° 0.2 mm 2 mps 658 mmHg 83%
    03:00 -1°C° 0.2 mm 2 mps 658 mmHg 83%
    04:00 -1°C° 0.2 mm 2 mps 658 mmHg 83%
    05:00 -1°C° 0.2 mm 2 mps 658 mmHg 82%
    06:00 -1°C° 0.2 mm 2 mps 659 mmHg 82%
    07:00 -1°C° 0.2 mm 2 mps 659 mmHg 83%
    08:00 -1°C° 0.2 mm 2 mps 659 mmHg 83%
    09:00 -1°C° 0.3 mm 2 mps 659 mmHg 82%
    10:00 -1°C° 0.3 mm 2 mps 660 mmHg 81%
    11:00 +2°C° 0.3 mm 1 mps 660 mmHg 80%
    12:00 +1°C° 0.3 mm 2 mps 660 mmHg 79%
    13:00 +1°C° 0.3 mm 2 mps 660 mmHg 79%
    14:00 +1°C° 0.3 mm 2 mps 659 mmHg 78%
    15:00 +1°C° 0.3 mm 2 mps 660 mmHg 79%
    16:00 +1°C° 0.3 mm 2 mps 660 mmHg 81%
    17:00 -1°C° 0.3 mm 2 mps 660 mmHg 82%
    18:00 -1°C° 0.3 mm 2 mps 660 mmHg 83%
    19:00 -1°C° 0.3 mm 2 mps 660 mmHg 83%
    20:00 -2°C° 0.3 mm 2 mps 660 mmHg 84%
    21:00 -2°C° 0.2 mm 2 mps 660 mmHg 83%
    22:00 0°C° 0.2 mm 1 mps 660 mmHg 83%
    23:00 0°C° 0.2 mm 1 mps 660 mmHg 83%

    21 December, Friday

    Time Temperature Precipitation Wind Pressure Humidity
    00:00 -1°C° 0 mm 1 mps 659 mmHg 82%
    01:00 -2°C° 0 mm 1 mps 659 mmHg 82%
    02:00 -2°C° 0 mm 1 mps 659 mmHg 81%
    03:00 -3°C° 0 mm 1 mps 659 mmHg 79%
    04:00 -5°C° 0 mm 2 mps 659 mmHg 77%
    05:00 -5°C° 0 mm 2 mps 659 mmHg 75%
    06:00 -5°C° 0 mm 2 mps 659 mmHg 73%
    07:00 -5°C° 0 mm 2 mps 658 mmHg 71%
    08:00 -5°C° 0 mm 2 mps 658 mmHg 69%
    09:00 -4°C° 0 mm 2 mps 658 mmHg 68%
    10:00 -2°C° 0 mm 2 mps 658 mmHg 67%
    11:00 -1°C° 0 mm 2 mps 658 mmHg 65%
    12:00 +1°C° 0 mm 2 mps 657 mmHg 64%
    13:00 +1°C° 0 mm 2 mps 657 mmHg 63%
    14:00 +2°C° 0 mm 2 mps 656 mmHg 61%
    15:00 +1°C° 0 mm 2 mps 656 mmHg 61%
    16:00 -1°C° 0 mm 2 mps 656 mmHg 60%
    17:00 -3°C° 0 mm 2 mps 655 mmHg 60%
    18:00 -3°C° 0 mm 2 mps 655 mmHg 56%
    19:00 -3°C° 0 mm 2 mps 655 mmHg 53%
    20:00 -3°C° 0 mm 2 mps 655 mmHg 50%
    21:00 -2°C° 0 mm 2 mps 655 mmHg 50%
    22:00 -2°C° 0 mm 2 mps 654 mmHg 50%
    23:00 -2°C° 0 mm 2 mps 654 mmHg 50%

    22 December, Saturday

    Time Temperature Precipitation Wind Pressure Humidity
    00:00 -2°C° 0 mm 2 mps 654 mmHg 51%
    01:00 0°C° 0 mm 1 mps 653 mmHg 53%
    02:00 +1°C° 0 mm 1 mps 653 mmHg 55%
    03:00 +1°C° 0.1 mm 1 mps 653 mmHg 57%
    04:00 +1°C° 0.1 mm 1 mps 653 mmHg 60%
    05:00 +1°C° 0.1 mm 1 mps 652 mmHg 63%
    06:00 +1°C° 0.1 mm 1 mps 652 mmHg 64%
    07:00 +1°C° 0.1 mm 1 mps 652 mmHg 65%
    08:00 +1°C° 0.1 mm 1 mps 652 mmHg 66%
    09:00 +2°C° 0.1 mm 1 mps 653 mmHg 65%
    10:00 +3°C° 0.1 mm 1 mps 653 mmHg 64%
    11:00 +3°C° 0.1 mm 0 mps 653 mmHg 62%
    12:00 +4°C° 0.2 mm 1 mps 653 mmHg 62%
    13:00 +5°C° 0.2 mm 1 mps 653 mmHg 61%
    14:00 +5°C° 0.2 mm 1 mps 653 mmHg 60%
    15:00 +4°C° 0.2 mm 1 mps 653 mmHg 61%
    16:00 +4°C° 0.2 mm 1 mps 652 mmHg 63%
    17:00 +3°C° 0.2 mm 1 mps 652 mmHg 64%
    18:00 +3°C° 0.2 mm 1 mps 653 mmHg 65%
    19:00 +3°C° 0.2 mm 1 mps 653 mmHg 65%
    20:00 +3°C° 0.2 mm 1 mps 653 mmHg 66%
    21:00 +3°C° 0.2 mm 1 mps 653 mmHg 66%
    22:00 +3°C° 0.2 mm 1 mps 652 mmHg 67%
    23:00 +2°C° 0.2 mm 1 mps 652 mmHg 67%

    23 December, Sunday

    Time Temperature Precipitation Wind Pressure Humidity
    00:00 +2°C° 0.2 mm 1 mps 652 mmHg 67%
    01:00 +2°C° 0.2 mm 1 mps 652 mmHg 67%
    02:00 +2°C° 0.2 mm 1 mps 652 mmHg 68%
    03:00 +2°C° 0.1 mm 1 mps 652 mmHg 68%
    04:00 +2°C° 0.1 mm 1 mps 652 mmHg 68%
    05:00 +2°C° 0.1 mm 1 mps 652 mmHg 68%
    06:00 +2°C° 0.1 mm 1 mps 652 mmHg 69%
    07:00 +2°C° 0.1 mm 1 mps 652 mmHg 69%
    08:00 +2°C° 0.1 mm 1 mps 653 mmHg 69%
    09:00 +2°C° 0.1 mm 1 mps 653 mmHg 68%
    10:00 +3°C° 0.1 mm 1 mps 653 mmHg 66%
    11:00 +4°C° 0.1 mm 1 mps 654 mmHg 65%
    12:00 +4°C° 0 mm 1 mps 653 mmHg 64%
    13:00 +5°C° 0 mm 1 mps 653 mmHg 64%
    14:00 +5°C° 0 mm 1 mps 653 mmHg 63%
    15:00 +4°C° 0 mm 1 mps 653 mmHg 65%
    16:00 +3°C° 0 mm 1 mps 653 mmHg 67%
    17:00 +3°C° 0 mm 1 mps 653 mmHg 69%
    18:00 +2°C° 0.1 mm 1 mps 653 mmHg 69%
    19:00 +2°C° 0.1 mm 1 mps 653 mmHg 70%
    20:00 +2°C° 0.1 mm 1 mps 654 mmHg 70%
    21:00 +2°C° 0.1 mm 1 mps 654 mmHg 70%
    22:00 +2°C° 0.1 mm 1 mps 653 mmHg 71%
    23:00 +1°C° 0.1 mm 1 mps 653 mmHg 71%
    Show more